Location: Bourg-d�Oueil
(42.8588°N, 0.4991°E)
Time: 15:44:27
(UTC+00:00)

COSMOS 2428 - Pass Details

Date: 16 June 2021
Orbit: 845 x 857 km, 70.9° (Epoch: 04 August)

Event Time Altitude Azimuth Distance (km) Brightness Sun altitude
Exits shadow 23:43:01 11° 249° (WSW) 2,422 4.9 -23.7°
Maximum altitude 23:47:42 29° 307° (NW) 1,537 4.4 -23.7°
Drops below altitude 10° 23:52:38 10° 6° (N) 2,501 6.2 -23.7°
Sets 23:55:28 0° 18° (NNE) 3,441 7.1 -23.8°
